Location: Corocito
(10.1894°N, 67.0986°W)
Time: 11:03:16
(UTC+00:00)

Cosmos 494 Rocket - Pass Details

Date: 29 May 2024
Orbit: 740 x 768 km, 74.1° (Epoch: 16 June)

Event Time Altitude Azimuth Distance (km) Brightness Sun altitude
Rises 23:19:49 0° 192° (SSW) 3,170 7.1 -8.5°
Reaches altitude 10° 23:22:10 10° 192° (SSW) 2,244 6.3 -9.0°
Maximum altitude 23:27:15 90° 116° (ESE) 742 3.9 -10.1°
Drops below altitude 10° 23:32:19 10° 13° (NNE) 2,240 6.6 -11.3°
Sets 23:34:40 0° 13° (NNE) 3,164 7.4 -11.8°
